This is the latest recevied weather packets stored in our database for station/object DF9PM-13. If no packets are shown the sender has not sent any weather packets the latest 10 day(s).
| Time | Temp. | Humidity | Pressure | Rain* | Wind** | Luminosity | Snow |
|---|---|---|---|---|---|---|---|
| 1777887635 | 22.22° C | 43% | 1014.2 hPa | - | - | - | - |
| 1777887335 | 21.67° C | 44% | 1014.2 hPa | - | - | - | - |
| 1777887035 | 21.67° C | 44% | 1014.3 hPa | - | - | - | - |
| 1777886735 | 23.33° C | 40% | 1014.3 hPa | - | - | - | - |
| 1777886435 | 22.78° C | 42% | 1014.3 hPa | - | - | - | - |
| 1777886135 | 22.22° C | 43% | 1014.3 hPa | - | - | - | - |
| 1777885835 | 22.78° C | 41% | 1014.3 hPa | - | - | - | - |
| 1777885535 | 22.22° C | 40% | 1014.4 hPa | - | - | - | - |
| 1777885235 | 22.78° C | 40% | 1014.4 hPa | - | - | - | - |
| 1777884935 | 22.78° C | 40% | 1014.4 hPa | - | - | - | - |
| 1777884635 | 21.11° C | 43% | 1014.4 hPa | - | - | - | - |
| 1777884335 | 21.67° C | 42% | 1014.3 hPa | - | - | - | - |
| 1777884035 | 21.11° C | 42% | 1014.5 hPa | - | - | - | - |
| 1777883735 | 21.11° C | 43% | 1014.4 hPa | - | - | - | - |
| 1777883434 | 18.89° C | 47% | 1014.4 hPa | - | - | - | - |
| 1777883135 | 19.44° C | 48% | 1014.4 hPa | - | - | - | - |
| 1777882834 | 19.44° C | 48% | 1014.4 hPa | - | - | - | - |
| 1777882534 | 20.56° C | 49% | 1014.4 hPa | - | - | - | - |
| 1777882234 | 20° C | 50% | 1014.4 hPa | - | - | - | - |
| 1777881934 | 19.44° C | 51% | 1014.5 hPa | - | - | - | - |
| 1777881634 | 19.44° C | 48% | 1014.4 hPa | - | - | - | - |
| 1777881334 | 18.89° C | 52% | 1014.4 hPa | - | - | - | - |
| 1777881034 | 18.89° C | 51% | 1014.5 hPa | - | - | - | - |
| 1777880734 | 18.89° C | 50% | 1014.4 hPa | - | - | - | - |
| 1777880434 | 18.89° C | 53% | 1014.3 hPa | - | - | - | - |
* Rain since midnight (hover to see other rain measurements)
** Current wind speed in m/s (hover to see current wind gust speed)